TimeCDT,TemperatureF,Dew PointF,Humidity,Sea Level PressureIn,VisibilityMPH,Wind Direction,Wind SpeedMPH,Gust SpeedMPH,PrecipitationIn,Events,Conditions,WindDirDegrees,DateUTC
12:53 AM,43.0,35.1,74,30.13,10.0,NNW,18.4,31.1,N/A,,Mostly Cloudy,340,2012-10-04 05:53:00
1:53 AM,43.0,33.1,68,30.13,10.0,NNW,13.8,28.8,N/A,,Mostly Cloudy,330,2012-10-04 06:53:00
2:53 AM,39.9,32.0,73,30.14,10.0,NNW,13.8,29.9,N/A,,Clear,330,2012-10-04 07:53:00
3:53 AM,39.9,30.9,70,30.14,10.0,NNW,21.9,33.4,N/A,,Scattered Clouds,340,2012-10-04 08:53:00
4:53 AM,39.9,30.9,70,30.17,10.0,NNW,25.3,39.1,N/A,,Partly Cloudy,330,2012-10-04 09:53:00
5:53 AM,39.0,30.9,73,30.21,10.0,NNW,24.2,32.2,N/A,,Clear,340,2012-10-04 10:53:00
6:53 AM,37.0,30.9,79,30.25,10.0,NNW,20.7,31.1,N/A,,Partly Cloudy,330,2012-10-04 11:53:00
7:09 AM,37.4,30.2,75,30.26,10.0,NNW,18.4,27.6,N/A,,Mostly Cloudy,340,2012-10-04 12:09:00
7:26 AM,37.4,30.2,75,30.26,10.0,NNW,17.3,28.8,N/A,,Scattered Clouds,340,2012-10-04 12:26:00
7:53 AM,36.0,30.0,79,30.27,10.0,NNW,17.3,27.6,N/A,,Clear,340,2012-10-04 12:53:00
8:53 AM,37.9,30.0,73,30.32,10.0,NNW,19.6,28.8,N/A,,Partly Cloudy,340,2012-10-04 13:53:00
9:09 AM,37.4,30.2,75,30.31,10.0,NNW,18.4,28.8,N/A,,Mostly Cloudy,340,2012-10-04 14:09:00
9:53 AM,39.9,28.9,65,30.34,10.0,NNW,18.4,28.8,N/A,,Mostly Cloudy,330,2012-10-04 14:53:00
10:36 AM,42.8,26.6,53,30.32,10.0,NNW,24.2,33.4,N/A,,Scattered Clouds,340,2012-10-04 15:36:00
10:53 AM,44.1,27.0,51,30.35,10.0,NNW,17.3,31.1,N/A,,Clear,330,2012-10-04 15:53:00
11:53 AM,46.9,27.0,46,30.35,10.0,North,23.0,29.9,N/A,,Clear,350,2012-10-04 16:53:00
12:53 PM,48.9,27.0,43,30.35,10.0,North,19.6,28.8,N/A,,Clear,350,2012-10-04 17:53:00
1:53 PM,50.0,28.0,43,30.32,10.0,North,16.1,23.0,N/A,,Clear,360,2012-10-04 18:53:00
2:53 PM,51.1,27.0,39,30.32,10.0,North,18.4,24.2,N/A,,Clear,350,2012-10-04 19:53:00
3:53 PM,51.1,26.1,38,30.31,10.0,NNE,13.8,21.9,N/A,,Clear,20,2012-10-04 20:53:00
4:53 PM,51.8,26.6,38,30.28,10.0,North,18.4,26.5,N/A,,Clear,360,2012-10-04 21:53:00
5:53 PM,48.9,26.1,41,30.31,10.0,North,12.7,-,N/A,,Clear,360,2012-10-04 22:53:00
6:53 PM,46.0,26.1,46,30.33,10.0,North,10.4,-,N/A,,Clear,360,2012-10-04 23:53:00
7:53 PM,39.0,25.0,57,30.36,10.0,North,5.8,-,N/A,,Clear,350,2012-10-05 00:53:00
8:53 PM,35.1,25.0,67,30.38,10.0,NNW,6.9,-,N/A,,Clear,340,2012-10-05 01:53:00
9:53 PM,35.1,26.1,70,30.39,10.0,North,8.1,-,N/A,,Clear,350,2012-10-05 02:53:00
10:53 PM,30.9,24.1,76,30.40,10.0,North,5.8,-,N/A,,Clear,360,2012-10-05 03:53:00
11:53 PM,28.0,23.0,81,30.39,10.0,North,4.6,-,N/A,,Clear,350,2012-10-05 04:53:00